Fort Atkinson, Wisconsin, United States (53538)
Lat: 42.93N, Lon: 88.84W
Wx Zone: WIZ064
Local Info
Past Weather Observations for Monday, August 18, 2014

NOTE: This archive is for the closest National Weather Service station to Fort Atkinson. Information may differ from the station used for current weather conditions.

Click here for Long-term Archive

Time Weather Temperature Dewpoint Humidity Pressure Winds Precip Visibility
23:55
Partly Cloudy
66°F / 19°C 63°F / 17°C 88% 29.71 in
(1006 mb)
SSE 6.9 mph
(SSE 11 kph)
- 10SM
23:35
Clear
64°F / 18°C 63°F / 17°C 94% 29.71 in
(1006 mb)
SSE 5.8 mph
(SSE 9 kph)
- 10SM
23:15
Clear
64°F / 18°C 63°F / 17°C 94% 29.74 in
(1007 mb)
SSE 6.9 mph
(SSE 11 kph)
- 10SM
22:55
Clear
64°F / 18°C 63°F / 17°C 94% 29.74 in
(1007 mb)
SE 6.9 mph
(SE 11 kph)
- 10SM
22:35
Partly Cloudy
64°F / 18°C 63°F / 17°C 94% 29.74 in
(1007 mb)
SE 5.8 mph
(SE 9 kph)
- 10SM
22:15
Clear
64°F / 18°C 63°F / 17°C 94% 29.77 in
(1008 mb)
SSE 4.6 mph
(SSE 7 kph)
- 10SM
21:55
Partly Cloudy
64°F / 18°C 63°F / 17°C 94% 29.77 in
(1008 mb)
SE 6.9 mph
(SE 11 kph)
- 10SM
21:35
Mostly Cloudy
Light Rain
64°F / 18°C 63°F / 17°C 94% 29.77 in
(1008 mb)
ESE 3.5 mph
(ESE 6 kph)
- 10SM
21:15
Overcast
Light Rain
66°F / 19°C 63°F / 17°C 88% 29.77 in
(1008 mb)
ESE 5.8 mph
(ESE 9 kph)
- 10SM
20:55
Overcast
66°F / 19°C 63°F / 17°C 88% 29.8 in
(1009 mb)
ENE 6.9 mph
(ENE 11 kph)
- 10SM
20:35
Overcast
68°F / 20°C 63°F / 17°C 83% 29.8 in
(1009 mb)
NE 13.8 mph
(NE 22 kph)
- 10SM
20:15
Overcast
68°F / 20°C 63°F / 17°C 83% 29.8 in
(1009 mb)
NE 11.5 mph
(NE 19 kph)
- 10SM
19:55
Mostly Cloudy
70°F / 21°C 63°F / 17°C 78% 29.8 in
(1009 mb)
NNE 12.7 mph
(NNE 20 kph)
- 10SM
19:35
Clear
73°F / 23°C 68°F / 20°C 83% 29.77 in
(1008 mb)
Calm - 10SM
19:15
Clear
75°F / 24°C 68°F / 20°C 78% 29.77 in
(1008 mb)
S 3.5 mph
(S 6 kph)
- 10SM
18:55
Clear
75°F / 24°C 68°F / 20°C 78% 29.77 in
(1008 mb)
SW 5.8 mph
(SW 9 kph)
- 10SM
18:35
Clear
77°F / 25°C 68°F / 20°C 74% 29.77 in
(1008 mb)
SSE 8.1 mph
(SSE 13 kph)
- 10SM
18:15
Partly Cloudy
77°F / 25°C 68°F / 20°C 74% 29.77 in
(1008 mb)
SW 6.9 mph
(SW 11 kph)
- 10SM
17:55
Partly Cloudy
79°F / 26°C 68°F / 20°C 70% 29.77 in
(1008 mb)
SW 8.1 mph
(SW 13 kph)
- 10SM
17:35
Clear
79°F / 26°C 68°F / 20°C 70% 29.77 in
(1008 mb)
SW 8.1 mph
(SW 13 kph)
- 10SM
17:15
Partly Cloudy
79°F / 26°C 68°F / 20°C 70% 29.77 in
(1008 mb)
SW 13.8 mph
(SW 22 kph)
- 10SM
16:55
Mostly Cloudy
81°F / 27°C 68°F / 20°C 66% 29.77 in
(1008 mb)
SSE 9.2 mph
(SSE 15 kph)
- 10SM
16:35
Partly Cloudy
79°F / 26°C 68°F / 20°C 70% 29.77 in
(1008 mb)
SSE 11.5 mph
(SSE 19 kph)
- 10SM
16:15
Partly Cloudy
81°F / 27°C 68°F / 20°C 66% 29.77 in
(1008 mb)
SSE 10.4 mph
(SSE 17 kph)
- 10SM
15:55
Mostly Cloudy
81°F / 27°C 68°F / 20°C 66% 29.77 in
(1008 mb)
SW 12.7 mph
(SW 20 kph)
- 10SM
15:35
Mostly Cloudy
81°F / 27°C 68°F / 20°C 66% 29.77 in
(1008 mb)
SW 13.8 mph
(SW 22 kph)
- 10SM
15:15
Overcast
81°F / 27°C 68°F / 20°C 66% 29.8 in
(1009 mb)
SW 13.8 mph
(SW 22 kph)
- 10SM
14:55
Overcast
81°F / 27°C 68°F / 20°C 66% 29.8 in
(1009 mb)
SSE 16.1 mph
(SSE 26 kph)
- 10SM
14:35
Mostly Cloudy
81°F / 27°C 68°F / 20°C 66% 29.8 in
(1009 mb)
SW 12.7 mph
(SW 20 kph)
- 10SM
14:15
Mostly Cloudy
81°F / 27°C 68°F / 20°C 66% 29.8 in
(1009 mb)
SW 9.2 mph
(SW 15 kph)
- 10SM
13:55
Mostly Cloudy
79°F / 26°C 66°F / 19°C 65% 29.8 in
(1009 mb)
S 11.5 mph
(S 19 kph)
- 10SM
13:35
Partly Cloudy
81°F / 27°C 68°F / 20°C 66% 29.8 in
(1009 mb)
SSE 11.5 mph
(SSE 19 kph)
- 10SM
13:15
Partly Cloudy
81°F / 27°C 68°F / 20°C 66% 29.83 in
(1010 mb)
SW 12.7 mph
(SW 20 kph)
- 10SM
12:55
Partly Cloudy
81°F / 27°C 68°F / 20°C 66% 29.83 in
(1010 mb)
S 8.1 mph
(S 13 kph)
- 10SM
12:35
Partly Cloudy
79°F / 26°C 68°F / 20°C 70% 29.83 in
(1010 mb)
S 11.5 mph
(S 19 kph)
- 10SM
12:15
Mostly Cloudy
79°F / 26°C 68°F / 20°C 70% 29.86 in
(1011 mb)
SW 10.4 mph
(SW 17 kph)
- 10SM
11:55
Partly Cloudy
77°F / 25°C 68°F / 20°C 74% 29.86 in
(1011 mb)
SW 8.1 mph
(SW 13 kph)
- 10SM
11:35
Clear
77°F / 25°C 68°F / 20°C 74% 29.86 in
(1011 mb)
S 6.9 mph
(S 11 kph)
- 10SM
11:15
Clear
77°F / 25°C 66°F / 19°C 69% 29.86 in
(1011 mb)
S 5.8 mph
(S 9 kph)
- 10SM
10:55
Partly Cloudy
75°F / 24°C 66°F / 19°C 74% 29.89 in
(1012 mb)
S 6.9 mph
(S 11 kph)
- 10SM
10:35
Mostly Cloudy
73°F / 23°C 64°F / 18°C 74% 29.89 in
(1012 mb)
S 10.4 mph
(S 17 kph)
- 10SM
10:15
Partly Cloudy
72°F / 22°C 63°F / 17°C 73% 29.89 in
(1012 mb)
SSE 6.9 mph
(SSE 11 kph)
- 10SM
09:55
Mostly Cloudy
72°F / 22°C 64°F / 18°C 78% 29.89 in
(1012 mb)
SE 4.6 mph
(SE 7 kph)
- 10SM
09:35
Overcast
68°F / 20°C 63°F / 17°C 83% 29.92 in
(1013 mb)
Calm - 10SM
09:15
Overcast
66°F / 19°C 63°F / 17°C 88% 29.89 in
(1012 mb)
SE 5.8 mph
(SE 9 kph)
- 10SM
08:55
Overcast
64°F / 18°C 63°F / 17°C 94% 29.92 in
(1013 mb)
S 3.5 mph
(S 6 kph)
- 10SM
08:35
Overcast
64°F / 18°C 63°F / 17°C 94% 29.92 in
(1013 mb)
Calm - 10SM
08:15
Overcast
64°F / 18°C 63°F / 17°C 94% 29.92 in
(1013 mb)
SSE 3.5 mph
(SSE 6 kph)
- 10SM
07:55
Overcast
63°F / 17°C 61°F / 16°C 94% 29.92 in
(1013 mb)
Calm - 10SM
07:35
Overcast
61°F / 16°C 61°F / 16°C 100% 29.92 in
(1013 mb)
Calm - 7SM
07:15
Overcast
61°F / 16°C 61°F / 16°C 100% 29.92 in
(1013 mb)
SSE 3.5 mph
(SSE 6 kph)
- 7SM
06:55
Overcast
Fog And Mist
59°F / 15°C 59°F / 15°C 100% 29.92 in
(1013 mb)
Calm - 4SM
06:35
Overcast
Fog And Mist
59°F / 15°C 59°F / 15°C 100% 29.92 in
(1013 mb)
S 3.5 mph
(S 6 kph)
- 5SM
06:15
Overcast
Fog And Mist
59°F / 15°C 59°F / 15°C 100% 29.92 in
(1013 mb)
Calm - 4SM
05:55
Overcast
Fog And Mist
59°F / 15°C 59°F / 15°C 100% 29.92 in
(1013 mb)
Calm - 3SM
05:35
Overcast
Fog And Mist
57°F / 14°C 57°F / 14°C 100% 29.92 in
(1013 mb)
Calm - 2 1/2SM
05:15
Overcast
Fog And Mist
57°F / 14°C 57°F / 14°C 100% 29.92 in
(1013 mb)
SE 4.6 mph
(SE 7 kph)
- 3/4SM
04:55
Overcast
Fog And Mist
57°F / 14°C 57°F / 14°C 100% 29.92 in
(1013 mb)
SSE 3.5 mph
(SSE 6 kph)
- 3/4SM
04:35
Overcast
Fog And Mist
57°F / 14°C 57°F / 14°C 100% 29.92 in
(1013 mb)
Calm - 3/4SM
04:15
Overcast
Fog
57°F / 14°C 57°F / 14°C 100% 29.92 in
(1013 mb)
Calm - 1/2SM
03:55
Overcast
Fog And Mist
57°F / 14°C 57°F / 14°C 100% 29.92 in
(1013 mb)
Calm - 3/4SM
03:35
Overcast
Fog
57°F / 14°C 57°F / 14°C 100% 29.92 in
(1013 mb)
SE 4.6 mph
(SE 7 kph)
- 1/2SM
03:15
Overcast
Fog And Mist
57°F / 14°C 57°F / 14°C 100% 29.92 in
(1013 mb)
SE 3.5 mph
(SE 6 kph)
- 3/4SM
02:55
Overcast
Fog And Mist
57°F / 14°C 57°F / 14°C 100% 29.95 in
(1014 mb)
SE 3.5 mph
(SE 6 kph)
- 1 1/2SM
02:35
Overcast
Fog And Mist
57°F / 14°C 57°F / 14°C 100% 29.95 in
(1014 mb)
SSE 3.5 mph
(SSE 6 kph)
- 3SM
02:15
Overcast
Fog And Mist
57°F / 14°C 57°F / 14°C 100% 29.95 in
(1014 mb)
SSE 3.5 mph
(SSE 6 kph)
- 5SM
01:55
Overcast
59°F / 15°C 59°F / 15°C 100% 29.95 in
(1014 mb)
Calm - 7SM
01:35
Overcast
57°F / 14°C 57°F / 14°C 100% 29.95 in
(1014 mb)
SE 3.5 mph
(SE 6 kph)
- 7SM
01:15
Overcast
57°F / 14°C 57°F / 14°C 100% 29.95 in
(1014 mb)
Calm - 7SM
00:55
Overcast
57°F / 14°C 57°F / 14°C 100% 29.92 in
(1013 mb)
Calm - 10SM
00:35
Partly Cloudy
57°F / 14°C 57°F / 14°C 100% 29.95 in
(1014 mb)
E 4.6 mph
(E 7 kph)
- 10SM
00:15
Clear
57°F / 14°C 57°F / 14°C 100% 29.95 in
(1014 mb)
Calm - 10SM
Time Weather Temperature Dewpoint Humidity Pressure Winds Precip Visibility


Weather for websites

WeatherForYou.com, LLC is not responsible for any damages or problems caused by this service. Current weather conditions are obtained from the closest station including government and personal stations which may have varying degrees of accuracy. Weather forecasts are derived from the NOAA NDFD. Like all things, this site belongs to Jesus Christ... He just trusts me to maintain it. If you have any questions or comments email webmaster@weatherforyou.com

Copyright © 2014, WeatherForYou.com LLC. All rights reserved.